Contract 0xeae72c624a34ded4b2c8d6fdb1692bd8eb6c9998

 
Txn Hash
Block
From
To
Value [Txn Fee]
0x1425b3d27eb388a365e58119e9d093b916530fac36d7acf9dba13f3a64868e8726735862020-11-30 0:23:201 hr 3 mins ago0x72ac0dac4784d1b0f6f15ceb4ee918c40aada55b IN  0xeae72c624a34ded4b2c8d6fdb1692bd8eb6c99980 BNB0.0018596
0xa0c44b65622d26129e15a3cf76e39a7b6b050588adcc2bee5eee177c67d9ae0426734652020-11-30 0:17:171 hr 9 mins ago0x72ac0dac4784d1b0f6f15ceb4ee918c40aada55b IN  0xeae72c624a34ded4b2c8d6fdb1692bd8eb6c99980 BNB0.0015596
0xcaaa2d8a5b59da8dafdb861c146b573d89804396d0c7599c0c5599980de9c8b026728862020-11-29 23:48:201 hr 38 mins ago0x72ac0dac4784d1b0f6f15ceb4ee918c40aada55b IN  0xeae72c624a34ded4b2c8d6fdb1692bd8eb6c99980 BNB0.0015596
0xa21903af640325cfa0d8c1e99d677f8e6e68886ef6e0a30b44b7bd189d63c90b26695362020-11-29 21:00:504 hrs 25 mins ago0x72ac0dac4784d1b0f6f15ceb4ee918c40aada55b IN  0xeae72c624a34ded4b2c8d6fdb1692bd8eb6c99980 BNB0.00179354
0x85acbcd3889c25917615b03a1882dd4b6c15e384be08c93ec6c633c9efd86f3526670722020-11-29 18:57:386 hrs 28 mins ago0x2b33de263b615a2b8acc0a6bfb55e4e67811f1ce IN  0xeae72c624a34ded4b2c8d6fdb1692bd8eb6c99980 BNB0.002631154
0x1f69ae2b87bc3df32970b90a75aa25f21cef5aae3ca5dac8dd7b92a2e5f3fa1526652582020-11-29 17:26:427 hrs 59 mins ago0x72ac0dac4784d1b0f6f15ceb4ee918c40aada55b IN  0xeae72c624a34ded4b2c8d6fdb1692bd8eb6c99980 BNB0.00213854
0xdf092f8a34b92bf188447791ce2a604373b073930820b50257f9031403fffaa326634842020-11-29 15:58:009 hrs 28 mins ago0xfdc46fbdd8af50d9bf7536bf44ce8560e423352c IN  0xeae72c624a34ded4b2c8d6fdb1692bd8eb6c99980 BNB0.0018596
0xa63d30abe7faa4f2f3ac7462f137a1082a5172decb607c6cbc5e9d9d163e34af26585692020-11-29 11:52:0013 hrs 34 mins ago0xfdc46fbdd8af50d9bf7536bf44ce8560e423352c IN  0xeae72c624a34ded4b2c8d6fdb1692bd8eb6c99980 BNB0.0018596
0xb824cc0ec06845c7fcaa0703833dafb1f684b45dbdf6e846da41014bebe2cafb26536332020-11-29 7:45:1217 hrs 41 mins ago0x4b1b803ad50e212e47a120b508f529db676e71d2 IN  0xeae72c624a34ded4b2c8d6fdb1692bd8eb6c99980 BNB0.00179354
0x9baccc9a39689d900fd86fbd8a96b4e77e5d14d60dd350d4a8fd69bcb344a7ff26529442020-11-29 7:10:4518 hrs 15 mins ago0x5da0834f5dbec360675a2e32377e2346a01b7c12 IN  0xeae72c624a34ded4b2c8d6fdb1692bd8eb6c99980 BNB0.0018596
0xc0a68546d36448e9223c57a9abd7505fb776e9edfdef7ac648a3ec825344d52726527502020-11-29 7:01:0318 hrs 25 mins ago0x9ac0233a97b0005462f7d65943b8cf6d7d074280 IN  0xeae72c624a34ded4b2c8d6fdb1692bd8eb6c99980 BNB0.0018596
0xb2cacc7e70821eddbaa430e9259140d9068a1be08ca03f7b016beb06678b634b26480622020-11-29 3:06:3822 hrs 19 mins ago0x1c329a1396d1f0c985106bd539549293ff5d70aa IN  0xeae72c624a34ded4b2c8d6fdb1692bd8eb6c99980 BNB0.0018596
0xf272356ec059e374463497072515ab0ef0228fd0a4f9502ff6e8912a92cd858a26463532020-11-29 1:41:1123 hrs 45 mins ago0xfdc46fbdd8af50d9bf7536bf44ce8560e423352c IN  0xeae72c624a34ded4b2c8d6fdb1692bd8eb6c99980 BNB0.0018596
0x0840bb51ef6ceb8bc626d8efb3bbc522705c3b31aa110d648348453b2cb6fc7526457132020-11-29 1:09:111 day 17 mins ago0x5885e5b11dfe904669b19646149cb4b6114942c7 IN  0xeae72c624a34ded4b2c8d6fdb1692bd8eb6c99980 BNB0.002889674
0xa0727f3fd09a567743bc8d00c1aea27b803c7a4cc2a04cb0461ee3a80675f3dc26456902020-11-29 1:08:021 day 18 mins ago0x5885e5b11dfe904669b19646149cb4b6114942c7 IN  0xeae72c624a34ded4b2c8d6fdb1692bd8eb6c99980 BNB0.002488991
0xb39168455b2132d71146c38a953af70dc5243fee52f106194002dea35f85317726456702020-11-29 1:07:021 day 19 mins ago0x53f67ff1ee6044f7adeba94aced515194bbfda3b IN  0xeae72c624a34ded4b2c8d6fdb1692bd8eb6c99980 BNB0.002813314
0x06037542a3ed84a0234b022f8472e59b16b862148abf8073e0ed2f213961c1ac26442202020-11-28 23:54:321 day 1 hr ago0x72ac0dac4784d1b0f6f15ceb4ee918c40aada55b IN  0xeae72c624a34ded4b2c8d6fdb1692bd8eb6c99980 BNB0.00213854
0x0161bbd64905f9270f1b158b51e2339cd90c49ac01036bb3376070f48488c6d826427582020-11-28 22:41:261 day 2 hrs ago0x5da0834f5dbec360675a2e32377e2346a01b7c12 IN  0xeae72c624a34ded4b2c8d6fdb1692bd8eb6c99980 BNB0.0018596
0xd2f98ccf2685612c862bc7001752832b64e33e12f6ad0dacb135c280180703b826398622020-11-28 20:16:381 day 5 hrs ago0xefe596ccba00e49a9ffff7df2b281694d2d4b44f IN  0xeae72c624a34ded4b2c8d6fdb1692bd8eb6c99980 BNB0.00266236
0x99f54f195d915acb28a9792e39183770b2b67fff4a313642db1793cdff26dd7b26376982020-11-28 18:28:261 day 6 hrs ago0x8f7ae6a0e3ded123f4d8f0022886816e2f1950c0 IN  0xeae72c624a34ded4b2c8d6fdb1692bd8eb6c99980 BNB0.00251324
0xeb4fb411350da8e8aa723ea58df7b31585812beab48f6fb1b3ccbe02909e98fc26351602020-11-28 16:21:321 day 9 hrs ago0x4b1b803ad50e212e47a120b508f529db676e71d2 IN  0xeae72c624a34ded4b2c8d6fdb1692bd8eb6c99980 BNB0.00179354
0xe60ccd5355132220bc23ba9be1b16bc2fd6788d2a7c1f3037c5c202b49cc660926347082020-11-28 15:58:561 day 9 hrs ago0xefe596ccba00e49a9ffff7df2b281694d2d4b44f IN  0xeae72c624a34ded4b2c8d6fdb1692bd8eb6c99980 BNB0.0015596
0x7e8a47f8c267b686c424fe204ca1af7b5ea01c956456be9e4b32f25e93fdcd2126340702020-11-28 15:27:021 day 9 hrs ago0xfdc46fbdd8af50d9bf7536bf44ce8560e423352c IN  0xeae72c624a34ded4b2c8d6fdb1692bd8eb6c99980 BNB0.0018596
0xe3c55e0ee5266fac1d19a9f63c4d5a66f8d0cd144cce5c0fc4d1df167244920b26336412020-11-28 15:05:351 day 10 hrs ago0x5da0834f5dbec360675a2e32377e2346a01b7c12 IN  0xeae72c624a34ded4b2c8d6fdb1692bd8eb6c99980 BNB0.0015596
0xf62b399ec94a8b484f3b7f45751d3d6fb7cbd4dca834ff76c4e8f798bfb7ab2b26278472020-11-28 10:15:531 day 15 hrs ago0x2b83f654b3aa613d91a49fc323ebf8edc5592734 IN  0xeae72c624a34ded4b2c8d6fdb1692bd8eb6c99980 BNB0.003061714
[ Download CSV Export 
Latest 25 internal transaction
Parent Txn Hash Block From To Value
0x1425b3d27eb388a365e58119e9d093b916530fac36d7acf9dba13f3a64868e8726735862020-11-30 0:23:201 hr 3 mins ago 0xeae72c624a34ded4b2c8d6fdb1692bd8eb6c9998 Xpace Finance: PLNT Token0 BNB
0xa0c44b65622d26129e15a3cf76e39a7b6b050588adcc2bee5eee177c67d9ae0426734652020-11-30 0:17:171 hr 9 mins ago 0xeae72c624a34ded4b2c8d6fdb1692bd8eb6c9998 Xpace Finance: PLNT Token0 BNB
0xcaaa2d8a5b59da8dafdb861c146b573d89804396d0c7599c0c5599980de9c8b026728862020-11-29 23:48:201 hr 38 mins ago 0xeae72c624a34ded4b2c8d6fdb1692bd8eb6c9998 Xpace Finance: PLNT Token0 BNB
0xa21903af640325cfa0d8c1e99d677f8e6e68886ef6e0a30b44b7bd189d63c90b26695362020-11-29 21:00:504 hrs 25 mins ago 0xeae72c624a34ded4b2c8d6fdb1692bd8eb6c9998 Xpace Finance: PLNT Token0 BNB
0x85acbcd3889c25917615b03a1882dd4b6c15e384be08c93ec6c633c9efd86f3526670722020-11-29 18:57:386 hrs 28 mins ago 0xeae72c624a34ded4b2c8d6fdb1692bd8eb6c9998 PancakeSwap: PLNT0 BNB
0x1f69ae2b87bc3df32970b90a75aa25f21cef5aae3ca5dac8dd7b92a2e5f3fa1526652582020-11-29 17:26:427 hrs 59 mins ago 0xeae72c624a34ded4b2c8d6fdb1692bd8eb6c9998 Xpace Finance: PLNT Token0 BNB
0xdf092f8a34b92bf188447791ce2a604373b073930820b50257f9031403fffaa326634842020-11-29 15:58:009 hrs 28 mins ago 0xeae72c624a34ded4b2c8d6fdb1692bd8eb6c9998 Xpace Finance: PLNT Token0 BNB
0xa63d30abe7faa4f2f3ac7462f137a1082a5172decb607c6cbc5e9d9d163e34af26585692020-11-29 11:52:0013 hrs 34 mins ago 0xeae72c624a34ded4b2c8d6fdb1692bd8eb6c9998 Xpace Finance: PLNT Token0 BNB
0xb824cc0ec06845c7fcaa0703833dafb1f684b45dbdf6e846da41014bebe2cafb26536332020-11-29 7:45:1217 hrs 41 mins ago 0xeae72c624a34ded4b2c8d6fdb1692bd8eb6c9998 Xpace Finance: PLNT Token0 BNB
0x9baccc9a39689d900fd86fbd8a96b4e77e5d14d60dd350d4a8fd69bcb344a7ff26529442020-11-29 7:10:4518 hrs 15 mins ago 0xeae72c624a34ded4b2c8d6fdb1692bd8eb6c9998 Xpace Finance: PLNT Token0 BNB
0xc0a68546d36448e9223c57a9abd7505fb776e9edfdef7ac648a3ec825344d52726527502020-11-29 7:01:0318 hrs 25 mins ago 0xeae72c624a34ded4b2c8d6fdb1692bd8eb6c9998 Xpace Finance: PLNT Token0 BNB
0xb2cacc7e70821eddbaa430e9259140d9068a1be08ca03f7b016beb06678b634b26480622020-11-29 3:06:3822 hrs 19 mins ago 0xeae72c624a34ded4b2c8d6fdb1692bd8eb6c9998 Xpace Finance: PLNT Token0 BNB
0xf272356ec059e374463497072515ab0ef0228fd0a4f9502ff6e8912a92cd858a26463532020-11-29 1:41:1123 hrs 45 mins ago 0xeae72c624a34ded4b2c8d6fdb1692bd8eb6c9998 Xpace Finance: PLNT Token0 BNB
0x0840bb51ef6ceb8bc626d8efb3bbc522705c3b31aa110d648348453b2cb6fc7526457132020-11-29 1:09:111 day 17 mins ago 0xeae72c624a34ded4b2c8d6fdb1692bd8eb6c9998 PancakeSwap: PLNT0 BNB
0xa0727f3fd09a567743bc8d00c1aea27b803c7a4cc2a04cb0461ee3a80675f3dc26456902020-11-29 1:08:021 day 18 mins ago 0xeae72c624a34ded4b2c8d6fdb1692bd8eb6c9998 PancakeSwap: PLNT0 BNB
0xb39168455b2132d71146c38a953af70dc5243fee52f106194002dea35f85317726456702020-11-29 1:07:021 day 19 mins ago 0xeae72c624a34ded4b2c8d6fdb1692bd8eb6c9998 Xpace Finance: PLNT Token0 BNB
0xb39168455b2132d71146c38a953af70dc5243fee52f106194002dea35f85317726456702020-11-29 1:07:021 day 19 mins ago 0xeae72c624a34ded4b2c8d6fdb1692bd8eb6c9998 PancakeSwap: PLNT0 BNB
0x06037542a3ed84a0234b022f8472e59b16b862148abf8073e0ed2f213961c1ac26442202020-11-28 23:54:321 day 1 hr ago 0xeae72c624a34ded4b2c8d6fdb1692bd8eb6c9998 Xpace Finance: PLNT Token0 BNB
0x0161bbd64905f9270f1b158b51e2339cd90c49ac01036bb3376070f48488c6d826427582020-11-28 22:41:261 day 2 hrs ago 0xeae72c624a34ded4b2c8d6fdb1692bd8eb6c9998 Xpace Finance: PLNT Token0 BNB
0xd2f98ccf2685612c862bc7001752832b64e33e12f6ad0dacb135c280180703b826398622020-11-28 20:16:381 day 5 hrs ago 0xeae72c624a34ded4b2c8d6fdb1692bd8eb6c9998 Xpace Finance: PLNT Token0 BNB
0xd2f98ccf2685612c862bc7001752832b64e33e12f6ad0dacb135c280180703b826398622020-11-28 20:16:381 day 5 hrs ago 0xeae72c624a34ded4b2c8d6fdb1692bd8eb6c9998 PancakeSwap: PLNT0 BNB
0x99f54f195d915acb28a9792e39183770b2b67fff4a313642db1793cdff26dd7b26376982020-11-28 18:28:261 day 6 hrs ago 0xeae72c624a34ded4b2c8d6fdb1692bd8eb6c9998 PancakeSwap: PLNT0 BNB
0xeb4fb411350da8e8aa723ea58df7b31585812beab48f6fb1b3ccbe02909e98fc26351602020-11-28 16:21:321 day 9 hrs ago 0xeae72c624a34ded4b2c8d6fdb1692bd8eb6c9998 Xpace Finance: PLNT Token0 BNB
0xe60ccd5355132220bc23ba9be1b16bc2fd6788d2a7c1f3037c5c202b49cc660926347082020-11-28 15:58:561 day 9 hrs ago 0xeae72c624a34ded4b2c8d6fdb1692bd8eb6c9998 Xpace Finance: PLNT Token0 BNB
0x7e8a47f8c267b686c424fe204ca1af7b5ea01c956456be9e4b32f25e93fdcd2126340702020-11-28 15:27:021 day 9 hrs ago 0xeae72c624a34ded4b2c8d6fdb1692bd8eb6c9998 Xpace Finance: PLNT Token0 BNB
[ Download CSV Export 
Loading

Contract Source Code Verified (Exact Match)

Contract Name:
PLNTVault

Compiler Version
v0.6.12+commit.27d51765

Optimization Enabled:
No with 200 runs

Other Settings:
default evmVersion, MIT license

Contract Source Code (Solidity)

/**
 *Submitted for verification at BscScan.com on 2020-11-05
*/

// SPDX-License-Identifier: MIT
pragma solidity >=0.4.22 <0.8.0;
// File: @openzeppelin/contracts/GSN/Context.sol





/*
 * @dev Provides information about the current execution context, including the
 * sender of the transaction and its data. While these are generally available
 * via msg.sender and msg.data, they should not be accessed in such a direct
 * manner, since when dealing with GSN meta-transactions the account sending and
 * paying for execution may not be the actual sender (as far as an application
 * is concerned).
 *
 * This contract is only required for intermediate, library-like contracts.
 */
abstract contract Context {
    function _msgSender() internal view virtual returns (address payable) {
        return msg.sender;
    }

    function _msgData() internal view virtual returns (bytes memory) {
        this; // silence state mutability warning without generating bytecode - see https://github.com/ethereum/solidity/issues/2691
        return msg.data;
    }
}

// File: @openzeppelin/contracts/access/Ownable.sol





/**
 * @dev Contract module which provides a basic access control mechanism, where
 * there is an account (an owner) that can be granted exclusive access to
 * specific functions.
 *
 * By default, the owner account will be the one that deploys the contract. This
 * can later be changed with {transferOwnership}.
 *
 * This module is used through inheritance. It will make available the modifier
 * onlyOwner, which can be applied to your functions to restrict their use to
 * the owner.
 */
contract Ownable is Context {
    address private _owner;

    event OwnershipTransferred(address indexed previousOwner, address indexed newOwner);

    /**
     * @dev Initializes the contract setting the deployer as the initial owner.
     */
    constructor () internal {
        address msgSender = _msgSender();
        _owner = msgSender;
        emit OwnershipTransferred(address(0), msgSender);
    }

    /**
     * @dev Returns the address of the current owner.
     */
    function owner() public view returns (address) {
        return _owner;
    }

    /**
     * @dev Throws if called by any account other than the owner.
     */
    modifier onlyOwner() {
        require(_owner == _msgSender(), "Ownable: caller is not the owner");
        _;
    }

    /**
     * @dev Leaves the contract without owner. It will not be possible to call
     * onlyOwner functions anymore. Can only be called by the current owner.
     *
     * NOTE: Renouncing ownership will leave the contract without an owner,
     * thereby removing any functionality that is only available to the owner.
     */
    function renounceOwnership() public virtual onlyOwner {
        emit OwnershipTransferred(_owner, address(0));
        _owner = address(0);
    }

    /**
     * @dev Transfers ownership of the contract to a new account (`newOwner`).
     * Can only be called by the current owner.
     */
    function transferOwnership(address newOwner) public virtual onlyOwner {
        require(newOwner != address(0), "Ownable: new owner is the zero address");
        emit OwnershipTransferred(_owner, newOwner);
        _owner = newOwner;
    }
}

// File: @openzeppelin/contracts/math/Math.sol





/**
 * @dev Standard math utilities missing in the Solidity language.
 */
library Math {
    /**
     * @dev Returns the largest of two numbers.
     */
    function max(uint256 a, uint256 b) internal pure returns (uint256) {
        return a >= b ? a : b;
    }

    /**
     * @dev Returns the smallest of two numbers.
     */
    function min(uint256 a, uint256 b) internal pure returns (uint256) {
        return a < b ? a : b;
    }

    /**
     * @dev Returns the average of two numbers. The result is rounded towards
     * zero.
     */
    function average(uint256 a, uint256 b) internal pure returns (uint256) {
        // (a + b) / 2 can overflow, so we distribute
        return (a / 2) + (b / 2) + ((a % 2 + b % 2) / 2);
    }
}

// File: @openzeppelin/contracts/math/SafeMath.sol





/**
 * @dev Wrappers over Solidity's arithmetic operations with added overflow
 * checks.
 *
 * Arithmetic operations in Solidity wrap on overflow. This can easily result
 * in bugs, because programmers usually assume that an overflow raises an
 * error, which is the standard behavior in high level programming languages.
 * SafeMath restores this intuition by reverting the transaction when an
 * operation overflows.
 *
 * Using this library instead of the unchecked operations eliminates an entire
 * class of bugs, so it's recommended to use it always.
 */
library SafeMath {
    /**
     * @dev Returns the addition of two unsigned integers, reverting on
     * overflow.
     *
     * Counterpart to Solidity's + operator.
     *
     * Requirements:
     *
     * - Addition cannot overflow.
     */
    function add(uint256 a, uint256 b) internal pure returns (uint256) {
        uint256 c = a + b;
        require(c >= a, "SafeMath: addition overflow");

        return c;
    }

    /**
     * @dev Returns the subtraction of two unsigned integers, reverting on
     * overflow (when the result is negative).
     *
     * Counterpart to Solidity's - operator.
     *
     * Requirements:
     *
     * - Subtraction cannot overflow.
     */
    function sub(uint256 a, uint256 b) internal pure returns (uint256) {
        return sub(a, b, "SafeMath: subtraction overflow");
    }

    /**
     * @dev Returns the subtraction of two unsigned integers, reverting with custom message on
     * overflow (when the result is negative).
     *
     * Counterpart to Solidity's - operator.
     *
     * Requirements:
     *
     * - Subtraction cannot overflow.
     */
    function sub(uint256 a, uint256 b, string memory errorMessage) internal pure returns (uint256) {
        require(b <= a, errorMessage);
        uint256 c = a - b;

        return c;
    }

    /**
     * @dev Returns the multiplication of two unsigned integers, reverting on
     * overflow.
     *
     * Counterpart to Solidity's * operator.
     *
     * Requirements:
     *
     * - Multiplication cannot overflow.
     */
    function mul(uint256 a, uint256 b) internal pure returns (uint256) {
        // Gas optimization: this is cheaper than requiring 'a' not being zero, but the
        // benefit is lost if 'b' is also tested.
        // See: https://github.com/OpenZeppelin/openzeppelin-contracts/pull/522
        if (a == 0) {
            return 0;
        }

        uint256 c = a * b;
        require(c / a == b, "SafeMath: multiplication overflow");

        return c;
    }

    /**
     * @dev Returns the integer division of two unsigned integers. Reverts on
     * division by zero. The result is rounded towards zero.
     *
     * Counterpart to Solidity's / operator. Note: this function uses a
     * revert opcode (which leaves remaining gas untouched) while Solidity
     * uses an invalid opcode to revert (consuming all remaining gas).
     *
     * Requirements:
     *
     * - The divisor cannot be zero.
     */
    function div(uint256 a, uint256 b) internal pure returns (uint256) {
        return div(a, b, "SafeMath: division by zero");
    }

    /**
     * @dev Returns the integer division of two unsigned integers. Reverts with custom message on
     * division by zero. The result is rounded towards zero.
     *
     * Counterpart to Solidity's / operator. Note: this function uses a
     * revert opcode (which leaves remaining gas untouched) while Solidity
     * uses an invalid opcode to revert (consuming all remaining gas).
     *
     * Requirements:
     *
     * - The divisor cannot be zero.
     */
    function div(uint256 a, uint256 b, string memory errorMessage) internal pure returns (uint256) {
        require(b > 0, errorMessage);
        uint256 c = a / b;
        // assert(a == b * c + a % b); // There is no case in which this doesn't hold

        return c;
    }

    /**
     * @dev Returns the remainder of dividing two unsigned integers. (unsigned integer modulo),
     * Reverts when dividing by zero.
     *
     * Counterpart to Solidity's % operator. This function uses a `revert`
     * opcode (which leaves remaining gas untouched) while Solidity uses an
     * invalid opcode to revert (consuming all remaining gas).
     *
     * Requirements:
     *
     * - The divisor cannot be zero.
     */
    function mod(uint256 a, uint256 b) internal pure returns (uint256) {
        return mod(a, b, "SafeMath: modulo by zero");
    }

    /**
     * @dev Returns the remainder of dividing two unsigned integers. (unsigned integer modulo),
     * Reverts with custom message when dividing by zero.
     *
     * Counterpart to Solidity's % operator. This function uses a revert
     * opcode (which leaves remaining gas untouched) while Solidity uses an
     * invalid opcode to revert (consuming all remaining gas).
     *
     * Requirements:
     *
     * - The divisor cannot be zero.
     */
    function mod(uint256 a, uint256 b, string memory errorMessage) internal pure returns (uint256) {
        require(b != 0, errorMessage);
        return a % b;
    }
}

// File: @openzeppelin/contracts/token/ERC20/IERC20.sol





/**
 * @dev Interface of the ERC20 standard as defined in the EIP.
 */
interface IERC20 {
    /**
     * @dev Returns the amount of tokens in existence.
     */
    function totalSupply() external view returns (uint256);

    /**
     * @dev Returns the amount of tokens owned by account.
     */
    function balanceOf(address account) external view returns (uint256);

    /**
     * @dev Moves amount tokens from the caller's account to recipient.
     *
     * Returns a boolean value indicating whether the operation succeeded.
     *
     * Emits a {Transfer} event.
     */
    function transfer(address recipient, uint256 amount) external returns (bool);

    /**
     * @dev Returns the remaining number of tokens that spender will be
     * allowed to spend on behalf of owner through {transferFrom}. This is
     * zero by default.
     *
     * This value changes when {approve} or {transferFrom} are called.
     */
    function allowance(address owner, address spender) external view returns (uint256);

    /**
     * @dev Sets amount as the allowance of spender over the caller's tokens.
     *
     * Returns a boolean value indicating whether the operation succeeded.
     *
     * IMPORTANT: Beware that changing an allowance with this method brings the risk
     * that someone may use both the old and the new allowance by unfortunate
     * transaction ordering. One possible solution to mitigate this race
     * condition is to first reduce the spender's allowance to 0 and set the
     * desired value afterwards:
     * https://github.com/ethereum/EIPs/issues/20#issuecomment-263524729
     *
     * Emits an {Approval} event.
     */
    function approve(address spender, uint256 amount) external returns (bool);

    /**
     * @dev Moves amount tokens from sender to recipient using the
     * allowance mechanism. amount is then deducted from the caller's
     * allowance.
     *
     * Returns a boolean value indicating whether the operation succeeded.
     *
     * Emits a {Transfer} event.
     */
    function transferFrom(address sender, address recipient, uint256 amount) external returns (bool);

    /**
     * @dev Emitted when value tokens are moved from one account (`from`) to
     * another (`to`).
     *
     * Note that value may be zero.
     */
    event Transfer(address indexed from, address indexed to, uint256 value);

    /**
     * @dev Emitted when the allowance of a spender for an owner is set by
     * a call to {approve}. value is the new allowance.
     */
    event Approval(address indexed owner, address indexed spender, uint256 value);
}

// File: @openzeppelin/contracts/utils/Address.sol





/**
 * @dev Collection of functions related to the address type
 */
library Address {
    /**
     * @dev Returns true if account is a contract.
     *
     * [IMPORTANT]
     * ====
     * It is unsafe to assume that an address for which this function returns
     * false is an externally-owned account (EOA) and not a contract.
     *

    * Among others, isContract will return false for the following
     * types of addresses:
     *
     *  - an externally-owned account
     *  - a contract in construction
     *  - an address where a contract will be created
     *  - an address where a contract lived, but was destroyed
     * ====
     */
    function isContract(address account) internal view returns (bool) {
        // This method relies in extcodesize, which returns 0 for contracts in
        // construction, since the code is only stored at the end of the
        // constructor execution.

        uint256 size;
        // solhint-disable-next-line no-inline-assembly
        assembly { size := extcodesize(account) }
        return size > 0;
    }

    /**
     * @dev Replacement for Solidity's transfer: sends amount wei to
     * recipient, forwarding all available gas and reverting on errors.
     *
     * https://eips.ethereum.org/EIPS/eip-1884[EIP1884] increases the gas cost
     * of certain opcodes, possibly making contracts go over the 2300 gas limit
     * imposed by transfer, making them unable to receive funds via
     * transfer. {sendValue} removes this limitation.
     *
     * https://diligence.consensys.net/posts/2019/09/stop-using-soliditys-transfer-now/[Learn more].
     *
     * IMPORTANT: because control is transferred to recipient, care must be
     * taken to not create reentrancy vulnerabilities. Consider using
     * {ReentrancyGuard} or the
     * https://solidity.readthedocs.io/en/v0.5.11/security-considerations.html#use-the-checks-effects-interactions-pattern[checks-effects-interactions pattern].
     */
    function sendValue(address payable recipient, uint256 amount) internal {
        require(address(this).balance >= amount, "Address: insufficient balance");

        // solhint-disable-next-line avoid-low-level-calls, avoid-call-value
        (bool success, ) = recipient.call{ value: amount }("");
        require(success, "Address: unable to send value, recipient may have reverted");
    }

    /**
     * @dev Performs a Solidity function call using a low level call. A
     * plain`call` is an unsafe replacement for a function call: use this
     * function instead.
     *
     * If target reverts with a revert reason, it is bubbled up by this
     * function (like regular Solidity function calls).
     *
     * Returns the raw returned data. To convert to the expected return value,
     * use https://solidity.readthedocs.io/en/latest/units-and-global-variables.html?highlight=abi.decode#abi-encoding-and-decoding-functions[`abi.decode`].
     *
     * Requirements:
     *
     * - target must be a contract.
     * - calling target with data must not revert.
     *
     * _Available since v3.1._
     */
    function functionCall(address target, bytes memory data) internal returns (bytes memory) {
      return functionCall(target, data, "Address: low-level call failed");
    }

    /**
     * @dev Same as {xref-Address-functionCall-address-bytes-}[`functionCall`], but with
     * errorMessage as a fallback revert reason when target reverts.
     *
     * _Available since v3.1._
     */
    function functionCall(address target, bytes memory data, string memory errorMessage) internal returns (bytes memory) {
        return _functionCallWithValue(target, data, 0, errorMessage);
    }

    /**
     * @dev Same as {xref-Address-functionCall-address-bytes-}[`functionCall`],
     * but also transferring value wei to target.
     *
     * Requirements:
     *
     * - the calling contract must have an ETH balance of at least value.
     * - the called Solidity function must be payable.
     *
     * _Available since v3.1._
     */
    function functionCallWithValue(address target, bytes memory data, uint256 value) internal returns (bytes memory) {
        return functionCallWithValue(target, data, value, "Address: low-level call with value failed");
    }

    /**
     * @dev Same as {xref-Address-functionCallWithValue-address-bytes-uint256-}[`functionCallWithValue`], but
     * with `errorMessage as a fallback revert reason when `target reverts.
     *
     * _Available since v3.1._
     */
    function functionCallWithValue(address target, bytes memory data, uint256 value, string memory errorMessage) internal returns (bytes memory) {
        require(address(this).balance >= value, "Address: insufficient balance for call");
        return _functionCallWithValue(target, data, value, errorMessage);
    }

    function _functionCallWithValue(address target, bytes memory data, uint256 weiValue, string memory errorMessage) private returns (bytes memory) {
        require(isContract(target), "Address: call to non-contract");

        // solhint-disable-next-line avoid-low-level-calls
        (bool success, bytes memory returndata) = target.call{ value: weiValue }(data);
        if (success) {
            return returndata;
        } else {
            // Look for revert reason and bubble it up if present
            if (returndata.length > 0) {
                // The easiest way to bubble the revert reason is using memory via assembly

                // solhint-disable-next-line no-inline-assembly
                assembly {
                    let returndata_size := mload(returndata)
                    revert(add(32, returndata), returndata_size)
                }
            } else {
                revert(errorMessage);
            }
        }
    }
}

// File: @openzeppelin/contracts/token/ERC20/SafeERC20.sol








/**
 * @title SafeERC20
 * @dev Wrappers around ERC20 operations that throw on failure (when the token
 * contract returns false). Tokens that return no value (and instead revert or
 * throw on failure) are also supported, non-reverting calls are assumed to be
 * successful.
 * To use this library you can add a using SafeERC20 for IERC20; statement to your contract,
 * which allows you to call the safe operations as token.safeTransfer(...), etc.
 */
library SafeERC20 {
    using SafeMath for uint256;
    using Address for address;

    function safeTransfer(IERC20 token, address to, uint256 value) internal {
        _callOptionalReturn(token, abi.encodeWithSelector(token.transfer.selector, to, value));
    }

    function safeTransferFrom(IERC20 token, address from, address to, uint256 value) internal {
        _callOptionalReturn(token, abi.encodeWithSelector(token.transferFrom.selector, from, to, value));
    }

    /**
     * @dev Deprecated. This function has issues similar to the ones found in
     * {IERC20-approve}, and its usage is discouraged.
     *
     * Whenever possible, use {safeIncreaseAllowance} and
     * {safeDecreaseAllowance} instead.
     */
    function safeApprove(IERC20 token, address spender, uint256 value) internal {
        // safeApprove should only be called when setting an initial allowance,
        // or when resetting it to zero. To increase and decrease it, use
        // 'safeIncreaseAllowance' and 'safeDecreaseAllowance'
        // solhint-disable-next-line max-line-length
        require((value == 0) || (token.allowance(address(this), spender) == 0),
            "SafeERC20: approve from non-zero to non-zero allowance"
        );
        _callOptionalReturn(token, abi.encodeWithSelector(token.approve.selector, spender, value));
    }

    function safeIncreaseAllowance(IERC20 token, address spender, uint256 value) internal {
        uint256 newAllowance = token.allowance(address(this), spender).add(value);
        _callOptionalReturn(token, abi.encodeWithSelector(token.approve.selector, spender, newAllowance));
    }

    function safeDecreaseAllowance(IERC20 token, address spender, uint256 value) internal {
        uint256 newAllowance = token.allowance(address(this), spender).sub(value, "SafeERC20: decreased allowance below zero");
        _callOptionalReturn(token, abi.encodeWithSelector(token.approve.selector, spender, newAllowance));
    }

    /**
     * @dev Imitates a Solidity high-level call (i.e. a regular function call to a contract), relaxing the requirement
     * on the return value: the return value is optional (but if data is returned, it must not be false).
     * @param token The token targeted by the call.
     * @param data The call data (encoded using abi.encode or one of its variants).
     */
    function _callOptionalReturn(IERC20 token, bytes memory data) private {
        // We need to perform a low level call here, to bypass Solidity's return data size checking mechanism, since
        // we're implementing it ourselves. We use {Address.functionCall} to perform this call, which verifies that
        // the target address contains contract code and also asserts for success in the low-level call.

        bytes memory returndata = address(token).functionCall(data, "SafeERC20: low-level call failed");
        if (returndata.length > 0) { // Return data is optional
            // solhint-disable-next-line max-line-length
            require(abi.decode(returndata, (bool)), "SafeERC20: ERC20 operation did not succeed");
        }
    }
}

// File: @openzeppelin/contracts/utils/ReentrancyGuard.sol





/**
 * @dev Contract module that helps prevent reentrant calls to a function.
 *
 * Inheriting from ReentrancyGuard will make the {nonReentrant} modifier
 * available, which can be applied to functions to make sure there are no nested
 * (reentrant) calls to them.
 *
 * Note that because there is a single nonReentrant guard, functions marked as
 * nonReentrant may not call one another. This can be worked around by making
 * those functions private, and then adding external nonReentrant entry
 * points to them.
 *
 * TIP: If you would like to learn more about reentrancy and alternative ways
 * to protect against it, check out our blog post
 * https://blog.openzeppelin.com/reentrancy-after-istanbul/[Reentrancy After Istanbul].
 */
contract ReentrancyGuard {
    // Booleans are more expensive than uint256 or any type that takes up a full
    // word because each write operation emits an extra SLOAD to first read the
    // slot's contents, replace the bits taken up by the boolean, and then write
    // back. This is the compiler's defense against contract upgrades and
    // pointer aliasing, and it cannot be disabled.

    // The values being non-zero value makes deployment a bit more expensive,
    // but in exchange the refund on every call to nonReentrant will be lower in
    // amount. Since refunds are capped to a percentage of the total
    // transaction's gas, it is best to keep them low in cases like this one, to
    // increase the likelihood of the full refund coming into effect.
    uint256 private constant _NOT_ENTERED = 1;
    uint256 private constant _ENTERED = 2;

    uint256 private _status;

    constructor () internal {
        _status = _NOT_ENTERED;
    }

    /**
     * @dev Prevents a contract from calling itself, directly or indirectly.
     * Calling a nonReentrant function from another nonReentrant
     * function is not supported. It is possible to prevent this from happening
     * by making the nonReentrant function external, and make it call a
     * private function that does the actual work.
     */
    modifier nonReentrant() {
        // On the first call to nonReentrant, _notEntered will be true
        require(_status != _ENTERED, "ReentrancyGuard: reentrant call");

        // Any calls to nonReentrant after this point will fail
        _status = _ENTERED;

        _;

        // By storing the original value once again, a refund is triggered (see
        // https://eips.ethereum.org/EIPS/eip-2200)
        _status = _NOT_ENTERED;
    }
}

// File: contracts/PLNTVault.sol










contract PLNTVault is Ownable, ReentrancyGuard {
    using SafeMath for uint256;
    using SafeERC20 for IERC20;

    /* ========== STATE VARIABLES ========== */
    IERC20 public rewardsToken;
    IERC20 public stakingToken;
    uint256 public periodFinish = 0;
    uint256 public rewardRate = 0;
    uint256 public startTime = 1919415;
    uint256 public rewardsDuration = 100 days;
    uint256 public lastUpdateTime;
    uint256 public rewardPerTokenStored;

    mapping(address => uint256) public userRewardPerTokenPaid;
    mapping(address => uint256) public rewards;

    uint256 private _totalSupply;
    mapping(address => uint256) private _balances;

    function initialize(
        address rewardsTokenAddress,
        address stakingTokenAddress
    ) public onlyOwner {
        require(
            rewardsTokenAddress != address(0x0),
            "invalid rewardsTokenAddress"
        );
        require(
            stakingTokenAddress != address(0x0),
            "invalid stakingTokenAddress"
        );
        require(
            address(rewardsToken) == address(0x0) ||
                address(stakingToken) == address(0x0),
            "initialized"
        );
        rewardsToken = IERC20(rewardsTokenAddress);
        stakingToken = IERC20(stakingTokenAddress);
    }

    /* ========== VIEWS ========== */

    function totalSupply() external view returns (uint256) {
        return _totalSupply;
    }

    function balanceOf(address account) external view returns (uint256) {
        return _balances[account];
    }

    function lastTimeRewardApplicable() public view returns (uint256) {
        return Math.min(block.timestamp, periodFinish);
    }

    function rewardPerToken() public view returns (uint256) {
        if (_totalSupply == 0) {
            return rewardPerTokenStored;
        }
        return
            rewardPerTokenStored.add(
                lastTimeRewardApplicable()
                    .sub(lastUpdateTime)
                    .mul(rewardRate)
                    .mul(1e18)
                    .div(_totalSupply)
            );
    }

    function earned(address account) public view returns (uint256) {
        return
            _balances[account]
                .mul(rewardPerToken().sub(userRewardPerTokenPaid[account]))
                .div(1e18)
                .add(rewards[account]);
    }

    function getRewardForDuration() external view returns (uint256) {
        return rewardRate.mul(rewardsDuration);
    }

    /* ========== MUTATIVE FUNCTIONS ========== */
    function stake(uint256 amount)
        external
        nonReentrant
        updateReward(msg.sender)
    {
        require(amount > 0, "Cannot stake 0");
        _totalSupply = _totalSupply.add(amount);
        _balances[msg.sender] = _balances[msg.sender].add(amount);
        stakingToken.safeTransferFrom(msg.sender, address(this), amount);
        emit Staked(msg.sender, amount);
    }

    function withdraw(uint256 amount)
        public
        nonReentrant
        updateReward(msg.sender)
    {
        require(amount > 0, "Cannot withdraw 0");
        _totalSupply = _totalSupply.sub(amount);
        _balances[msg.sender] = _balances[msg.sender].sub(amount);
        stakingToken.safeTransfer(msg.sender, amount);
        emit Withdrawn(msg.sender, amount);
    }


    function getReward() public nonReentrant updateReward(msg.sender) {
        uint256 reward = rewards[msg.sender];
        if (reward > 0) {
            rewards[msg.sender] = 0;
            rewardsToken.safeTransfer(msg.sender, reward);
            emit RewardPaid(msg.sender, reward);
        }
    }

    function exit() external {
        withdraw(_balances[msg.sender]);
        getReward();
    }

    /* ========== RESTRICTED FUNCTIONS ========== */
    function notifyRewardAmount(uint256 reward)
        external
        onlyOwner
        onlyStarted
        updateReward(address(0))
    {
        if (block.timestamp >= periodFinish) {
            rewardRate = reward.div(rewardsDuration);
        } else {
            uint256 remaining = periodFinish.sub(block.timestamp);
            uint256 leftover = remaining.mul(rewardRate);
            rewardRate = reward.add(leftover).div(rewardsDuration);
        }

        uint256 balance = rewardsToken.balanceOf(address(this));
        require(
            rewardRate <= balance.div(rewardsDuration),
            "Provided reward too high"
        );

        lastUpdateTime = block.timestamp;
        periodFinish = block.timestamp.add(rewardsDuration);
        emit RewardAdded(reward);
    }

    /* ========== MODIFIERS ========== */

    modifier onlyStarted() {
        require(block.timestamp >= startTime, "Not Started");
        _;
    }

    modifier updateReward(address account) {
        rewardPerTokenStored = rewardPerToken();
        lastUpdateTime = lastTimeRewardApplicable();
        if (account != address(0)) {
            rewards[account] = earned(account);
            userRewardPerTokenPaid[account] = rewardPerTokenStored;
        }
        _;
    }

    /* ========== EVENTS ========== */

    event RewardAdded(uint256 reward);
    event Staked(address indexed user, uint256 amount);
    event Withdrawn(address indexed user, uint256 amount);
    event RewardPaid(address indexed user, uint256 reward);
}

Contract ABI

[{"anonymous":false,"inputs":[{"indexed":true,"internalType":"address","name":"previousOwner","type":"address"},{"indexed":true,"internalType":"address","name":"newOwner","type":"address"}],"name":"OwnershipTransferred","type":"event"},{"anonymous":false,"inputs":[{"indexed":false,"internalType":"uint256","name":"reward","type":"uint256"}],"name":"RewardAdded","type":"event"},{"anonymous":false,"inputs":[{"indexed":true,"internalType":"address","name":"user","type":"address"},{"indexed":false,"internalType":"uint256","name":"reward","type":"uint256"}],"name":"RewardPaid","type":"event"},{"anonymous":false,"inputs":[{"indexed":true,"internalType":"address","name":"user","type":"address"},{"indexed":false,"internalType":"uint256","name":"amount","type":"uint256"}],"name":"Staked","type":"event"},{"anonymous":false,"inputs":[{"indexed":true,"internalType":"address","name":"user","type":"address"},{"indexed":false,"internalType":"uint256","name":"amount","type":"uint256"}],"name":"Withdrawn","type":"event"},{"inputs":[{"internalType":"address","name":"account","type":"address"}],"name":"balanceOf","outputs":[{"internalType":"uint256","name":"","type":"uint256"}],"stateMutability":"view","type":"function"},{"inputs":[{"internalType":"address","name":"account","type":"address"}],"name":"earned","outputs":[{"internalType":"uint256","name":"","type":"uint256"}],"stateMutability":"view","type":"function"},{"inputs":[],"name":"exit","outputs":[],"stateMutability":"nonpayable","type":"function"},{"inputs":[],"name":"getReward","outputs":[],"stateMutability":"nonpayable","type":"function"},{"inputs":[],"name":"getRewardForDuration","outputs":[{"internalType":"uint256","name":"","type":"uint256"}],"stateMutability":"view","type":"function"},{"inputs":[{"internalType":"address","name":"rewardsTokenAddress","type":"address"},{"internalType":"address","name":"stakingTokenAddress","type":"address"}],"name":"initialize","outputs":[],"stateMutability":"nonpayable","type":"function"},{"inputs":[],"name":"lastTimeRewardApplicable","outputs":[{"internalType":"uint256","name":"","type":"uint256"}],"stateMutability":"view","type":"function"},{"inputs":[],"name":"lastUpdateTime","outputs":[{"internalType":"uint256","name":"","type":"uint256"}],"stateMutability":"view","type":"function"},{"inputs":[{"internalType":"uint256","name":"reward","type":"uint256"}],"name":"notifyRewardAmount","outputs":[],"stateMutability":"nonpayable","type":"function"},{"inputs":[],"name":"owner","outputs":[{"internalType":"address","name":"","type":"address"}],"stateMutability":"view","type":"function"},{"inputs":[],"name":"periodFinish","outputs":[{"internalType":"uint256","name":"","type":"uint256"}],"stateMutability":"view","type":"function"},{"inputs":[],"name":"renounceOwnership","outputs":[],"stateMutability":"nonpayable","type":"function"},{"inputs":[],"name":"rewardPerToken","outputs":[{"internalType":"uint256","name":"","type":"uint256"}],"stateMutability":"view","type":"function"},{"inputs":[],"name":"rewardPerTokenStored","outputs":[{"internalType":"uint256","name":"","type":"uint256"}],"stateMutability":"view","type":"function"},{"inputs":[],"name":"rewardRate","outputs":[{"internalType":"uint256","name":"","type":"uint256"}],"stateMutability":"view","type":"function"},{"inputs":[{"internalType":"address","name":"","type":"address"}],"name":"rewards","outputs":[{"internalType":"uint256","name":"","type":"uint256"}],"stateMutability":"view","type":"function"},{"inputs":[],"name":"rewardsDuration","outputs":[{"internalType":"uint256","name":"","type":"uint256"}],"stateMutability":"view","type":"function"},{"inputs":[],"name":"rewardsToken","outputs":[{"internalType":"contract IERC20","name":"","type":"address"}],"stateMutability":"view","type":"function"},{"inputs":[{"internalType":"uint256","name":"amount","type":"uint256"}],"name":"stake","outputs":[],"stateMutability":"nonpayable","type":"function"},{"inputs":[],"name":"stakingToken","outputs":[{"internalType":"contract IERC20","name":"","type":"address"}],"stateMutability":"view","type":"function"},{"inputs":[],"name":"startTime","outputs":[{"internalType":"uint256","name":"","type":"uint256"}],"stateMutability":"view","type":"function"},{"inputs":[],"name":"totalSupply","outputs":[{"internalType":"uint256","name":"","type":"uint256"}],"stateMutability":"view","type":"function"},{"inputs":[{"internalType":"address","name":"newOwner","type":"address"}],"name":"transferOwnership","outputs":[],"stateMutability":"nonpayable","type":"function"},{"inputs":[{"internalType":"address","name":"","type":"address"}],"name":"userRewardPerTokenPaid","outputs":[{"internalType":"uint256","name":"","type":"uint256"}],"stateMutability":"view","type":"function"},{"inputs":[{"internalType":"uint256","name":"amount","type":"uint256"}],"name":"withdraw","outputs":[],"stateMutability":"nonpayable","type":"function"}]

608060405260006004556000600555621d49b76006556283d60060075534801561002857600080fd5b5060006100396100e360201b60201c565b9050806000806101000a81548173ffffffffffffffffffffffffffffffffffffffff021916908373ffffffffffffffffffffffffffffffffffffffff1602179055508073ffffffffffffffffffffffffffffffffffffffff16600073ffffffffffffffffffffffffffffffffffffffff167f8be0079c531659141344cd1fd0a4f28419497f9722a3daafe3b4186f6b6457e060405160405180910390a350600180819055506100eb565b600033905090565b612653806100fa6000396000f3fe608060405234801561001057600080fd5b50600436106101725760003560e01c806378e97925116100de578063c8f33c9111610097578063df136d6511610071578063df136d6514610565578063e9fad8ee14610583578063ebe2b12b1461058d578063f2fde38b146105ab57610172565b8063c8f33c91146104f5578063cd3daf9d14610513578063d1af0c7d1461053157610172565b806378e97925146103e15780637b0a47ee146103ff57806380faa57d1461041d5780638b8763471461043b5780638da5cb5b14610493578063a694fc3a146104c757610172565b80633c6b16ab116101305780633c6b16ab146102af5780633d18b912146102dd578063485cc955146102e757806370a082311461034b578063715018a6146103a357806372f702f3146103ad57610172565b80628cc262146101775780630700037d146101cf57806318160ddd146102275780631c1f78eb146102455780632e1a7d4d14610263578063386a952514610291575b600080fd5b6101b96004803603602081101561018d57600080fd5b81019080803573ffffffffffffffffffffffffffffffffffffffff1690602001909291905050506105ef565b6040518082815260200191505060405180910390f35b610211600480360360208110156101e557600080fd5b81019080803573ffffffffffffffffffffffffffffffffffffffff16906020019092919050505061070d565b6040518082815260200191505060405180910390f35b61022f610725565b6040518082815260200191505060405180910390f35b61024d61072f565b6040518082815260200191505060405180910390f35b61028f6004803603602081101561027957600080fd5b810190808035906020019092919050505061074d565b005b610299610a7e565b6040518082815260200191505060405180910390f35b6102db600480360360208110156102c557600080fd5b8101908080359060200190929190505050610a84565b005b6102e5610ee6565b005b610349600480360360408110156102fd57600080fd5b81019080803573ffffffffffffffffffffffffffffffffffffffff169060200190929190803573ffffffffffffffffffffffffffffffffffffffff169060200190929190505050611184565b005b61038d6004803603602081101561036157600080fd5b81019080803573ffffffffffffffffffffffffffffffffffffffff169060200190929190505050611535565b6040518082815260200191505060405180910390f35b6103ab61157e565b005b6103b5611704565b604051808273ffffffffffffffffffffffffffffffffffffffff16815260200191505060405180910390f35b6103e961172a565b6040518082815260200191505060405180910390f35b610407611730565b6040518082815260200191505060405180910390f35b610425611736565b6040518082815260200191505060405180910390f35b61047d6004803603602081101561045157600080fd5b81019080803573ffffffffffffffffffffffffffffffffffffffff169060200190929190505050611749565b6040518082815260200191505060405180910390f35b61049b611761565b604051808273ffffffffffffffffffffffffffffffffffffffff16815260200191505060405180910390f35b6104f3600480360360208110156104dd57600080fd5b810190808035906020019092919050505061178a565b005b6104fd611abd565b6040518082815260200191505060405180910390f35b61051b611ac3565b6040518082815260200191505060405180910390f35b610539611b51565b604051808273ffffffffffffffffffffffffffffffffffffffff16815260200191505060405180910390f35b61056d611b77565b6040518082815260200191505060405180910390f35b61058b611b7d565b005b610595611bcf565b6040518082815260200191505060405180910390f35b6105ed600480360360208110156105c157600080fd5b81019080803573ffffffffffffffffffffffffffffffffffffffff169060200190929190505050611bd5565b005b6000610706600b60008473ffffffffffffffffffffffffffffffffffffffff1673ffffffffffffffffffffffffffffffffffffffff168152602001908152602001600020546106f8670de0b6b3a76400006106ea61069c600a60008973ffffffffffffffffffffffffffffffffffffffff1673ffffffffffffffffffffffffffffffffffffffff1681526020019081526020016000205461068e611ac3565b611de090919063ffffffff16565b600d60008973ffffffffffffffffffffffffffffffffffffffff1673ffffffffffffffffffffffffffffffffffffffff16815260200190815260200160002054611e2a90919063ffffffff16565b611eb090919063ffffffff16565b611efa90919063ffffffff16565b9050919050565b600b6020528060005260406000206000915090505481565b6000600c54905090565b6000610748600754600554611e2a90919063ffffffff16565b905090565b600260015414156107c6576040517f08c379a000000000000000000000000000000000000000000000000000000000815260040180806020018281038252601f8152602001807f5265656e7472616e637947756172643a207265656e7472616e742063616c6c0081525060200191505060405180910390fd5b6002600181905550336107d7611ac3565b6009819055506107e5611736565b600881905550600073ffffffffffffffffffffffffffffffffffffffff168173ffffffffffffffffffffffffffffffffffffffff16146108b257610828816105ef565b600b60008373ffffffffffffffffffffffffffffffffffffffff1673ffffffffffffffffffffffffffffffffffffffff16815260200190815260200160002081905550600954600a60008373ffffffffffffffffffffffffffffffffffffffff1673ffffffffffffffffffffffffffffffffffffffff168152602001908152602001600020819055505b60008211610928576040517f08c379a00000000000000000000000000000000000000000000000000000000081526004018080602001828103825260118152602001807f43616e6e6f74207769746864726177203000000000000000000000000000000081525060200191505060405180910390fd5b61093d82600c54611de090919063ffffffff16565b600c8190555061099582600d60003373ffffffffffffffffffffffffffffffffffffffff1673ffffffffffffffffffffffffffffffffffffffff16815260200190815260200160002054611de090919063ffffffff16565b600d60003373ffffffffffffffffffffffffffffffffffffffff1673ffffffffffffffffffffffffffffffffffffffff16815260200190815260200160002081905550610a253383600360009054906101000a900473ffffffffffffffffffffffffffffffffffffffff1673ffffffffffffffffffffffffffffffffffffffff16611f829092919063ffffffff16565b3373ffffffffffffffffffffffffffffffffffffffff167f7084f5476618d8e60b11ef0d7d3f06914655adb8793e28ff7f018d4c76d505d5836040518082815260200191505060405180910390a2506001808190555050565b60075481565b610a8c612024565b73ffffffffffffffffffffffffffffffffffffffff1660008054906101000a900473ffffffffffffffffffffffffffffffffffffffff1673ffffffffffffffffffffffffffffffffffffffff1614610b4c576040517f08c379a00000000000000000000000000000000000000000000000000000000081526004018080602001828103825260208152602001807f4f776e61626c653a2063616c6c6572206973206e6f7420746865206f776e657281525060200191505060405180910390fd5b600654421015610bc4576040517f08c379a000000000000000000000000000000000000000000000000000000000815260040180806020018281038252600b8152602001807f4e6f74205374617274656400000000000000000000000000000000000000000081525060200191505060405180910390fd5b6000610bce611ac3565b600981905550610bdc611736565b600881905550600073ffffffffffffffffffffffffffffffffffffffff168173ffffffffffffffffffffffffffffffffffffffff1614610ca957610c1f816105ef565b600b60008373ffffffffffffffffffffffffffffffffffffffff1673ffffffffffffffffffffffffffffffffffffffff16815260200190815260200160002081905550600954600a60008373ffffffffffffffffffffffffffffffffffffffff1673ffffffffffffffffffffffffffffffffffffffff168152602001908152602001600020819055505b6004544210610cd257610cc760075483611eb090919063ffffffff16565b600581905550610d34565b6000610ce942600454611de090919063ffffffff16565b90506000610d0260055483611e2a90919063ffffffff16565b9050610d2b600754610d1d8387611efa90919063ffffffff16565b611eb090919063ffffffff16565b60058190555050505b6000600260009054906101000a900473ffffffffffffffffffffffffffffffffffffffff1673ffffffffffffffffffffffffffffffffffffffff166370a08231306040518263ffffffff1660e01b8152600401808273ffffffffffffffffffffffffffffffffffffffff16815260200191505060206040518083038186803b158015610dbf57600080fd5b505afa158015610dd3573d6000803e3d6000fd5b505050506040513d6020811015610de957600080fd5b81019080805190602001909291905050509050610e1160075482611eb090919063ffffffff16565b6005541115610e88576040517f08c379a00000000000000000000000000000000000000000000000000000000081526004018080602001828103825260188152602001807f50726f76696465642072657761726420746f6f2068696768000000000000000081525060200191505060405180910390fd5b42600881905550610ea460075442611efa90919063ffffffff16565b6004819055507fde88a922e0d3b88b24e9623efeb464919c6bf9f66857a65e2bfcf2ce87a9433d836040518082815260200191505060405180910390a1505050565b60026001541415610f5f576040517f08c379a000000000000000000000000000000000000000000000000000000000815260040180806020018281038252601f8152602001807f5265656e7472616e637947756172643a207265656e7472616e742063616c6c0081525060200191505060405180910390fd5b600260018190555033610f70611ac3565b600981905550610f7e611736565b600881905550600073ffffffffffffffffffffffffffffffffffffffff168173ffffffffffffffffffffffffffffffffffffffff161461104b57610fc1816105ef565b600b60008373ffffffffffffffffffffffffffffffffffffffff1673ffffffffffffffffffffffffffffffffffffffff16815260200190815260200160002081905550600954600a60008373ffffffffffffffffffffffffffffffffffffffff1673ffffffffffffffffffffffffffffffffffffffff168152602001908152602001600020819055505b6000600b60003373ffffffffffffffffffffffffffffffffffffffff1673ffffffffffffffffffffffffffffffffffffffff1681526020019081526020016000205490506000811115611179576000600b60003373ffffffffffffffffffffffffffffffffffffffff1673ffffffffffffffffffffffffffffffffffffffff1681526020019081526020016000208190555061112a3382600260009054906101000a900473ffffffffffffffffffffffffffffffffffffffff1673ffffffffffffffffffffffffffffffffffffffff16611f829092919063ffffffff16565b3373ffffffffffffffffffffffffffffffffffffffff167fe2403640ba68fed3a2f88b7557551d1993f84b99bb10ff833f0cf8db0c5e0486826040518082815260200191505060405180910390a25b505060018081905550565b61118c612024565b73ffffffffffffffffffffffffffffffffffffffff1660008054906101000a900473ffffffffffffffffffffffffffffffffffffffff1673ffffffffffffffffffffffffffffffffffffffff161461124c576040517f08c379a00000000000000000000000000000000000000000000000000000000081526004018080602001828103825260208152602001807f4f776e61626c653a2063616c6c6572206973206e6f7420746865206f776e657281525060200191505060405180910390fd5b600073ffffffffffffffffffffffffffffffffffffffff168273ffffffffffffffffffffffffffffffffffffffff1614156112ef576040517f08c379a000000000000000000000000000000000000000000000000000000000815260040180806020018281038252601b8152602001807f696e76616c69642072657761726473546f6b656e41646472657373000000000081525060200191505060405180910390fd5b600073ffffffffffffffffffffffffffffffffffffffff168173ffffffffffffffffffffffffffffffffffffffff161415611392576040517f08c379a000000000000000000000000000000000000000000000000000000000815260040180806020018281038252601b8152602001807f696e76616c6964207374616b696e67546f6b656e41646472657373000000000081525060200191505060405180910390fd5b600073ffffffffffffffffffffffffffffffffffffffff16600260009054906101000a900473ffffffffffffffffffffffffffffffffffffffff1673ffffffffffffffffffffffffffffffffffffffff16148061143d5750600073ffffffffffffffffffffffffffffffffffffffff16600360009054906101000a900473ffffffffffffffffffffffffffffffffffffffff1673ffffffffffffffffffffffffffffffffffffffff16145b6114af576040517f08c379a000000000000000000000000000000000000000000000000000000000815260040180806020018281038252600b8152602001807f696e697469616c697a656400000000000000000000000000000000000000000081525060200191505060405180910390fd5b81600260006101000a81548173ffffffffffffffffffffffffffffffffffffffff021916908373ffffffffffffffffffffffffffffffffffffffff16021790555080600360006101000a81548173ffffffffffffffffffffffffffffffffffffffff021916908373ffffffffffffffffffffffffffffffffffffffff1602179055505050565b6000600d60008373ffffffffffffffffffffffffffffffffffffffff1673ffffffffffffffffffffffffffffffffffffffff168152602001908152602001600020549050919050565b611586612024565b73ffffffffffffffffffffffffffffffffffffffff1660008054906101000a900473ffffffffffffffffffffffffffffffffffffffff1673ffffffffffffffffffffffffffffffffffffffff1614611646576040517f08c379a00000000000000000000000000000000000000000000000000000000081526004018080602001828103825260208152602001807f4f776e61626c653a2063616c6c6572206973206e6f7420746865206f776e657281525060200191505060405180910390fd5b600073ffffffffffffffffffffffffffffffffffffffff1660008054906101000a900473ffffffffffffffffffffffffffffffffffffffff1673ffffffffffffffffffffffffffffffffffffffff167f8be0079c531659141344cd1fd0a4f28419497f9722a3daafe3b4186f6b6457e060405160405180910390a360008060006101000a81548173ffffffffffffffffffffffffffffffffffffffff021916908373ffffffffffffffffffffffffffffffffffffffff160217905550565b600360009054906101000a900473ffffffffffffffffffffffffffffffffffffffff1681565b60065481565b60055481565b60006117444260045461202c565b905090565b600a6020528060005260406000206000915090505481565b60008060009054906101000a900473ffffffffffffffffffffffffffffffffffffffff16905090565b60026001541415611803576040517f08c379a000000000000000000000000000000000000000000000000000000000815260040180806020018281038252601f8152602001807f5265656e7472616e637947756172643a207265656e7472616e742063616c6c0081525060200191505060405180910390fd5b600260018190555033611814611ac3565b600981905550611822611736565b600881905550600073ffffffffffffffffffffffffffffffffffffffff168173ffffffffffffffffffffffffffffffffffffffff16146118ef57611865816105ef565b600b60008373ffffffffffffffffffffffffffffffffffffffff1673ffffffffffffffffffffffffffffffffffffffff16815260200190815260200160002081905550600954600a60008373ffffffffffffffffffffffffffffffffffffffff1673ffffffffffffffffffffffffffffffffffffffff168152602001908152602001600020819055505b60008211611965576040517f08c379a000000000000000000000000000000000000000000000000000000000815260040180806020018281038252600e8152602001807f43616e6e6f74207374616b65203000000000000000000000000000000000000081525060200191505060405180910390fd5b61197a82600c54611efa90919063ffffffff16565b600c819055506119d282600d60003373ffffffffffffffffffffffffffffffffffffffff1673ffffffffffffffffffffffffffffffffffffffff16815260200190815260200160002054611efa90919063ffffffff16565b600d60003373ffffffffffffffffffffffffffffffffffffffff1673ffffffffffffffffffffffffffffffffffffffff16815260200190815260200160002081905550611a64333084600360009054906101000a900473ffffffffffffffffffffffffffffffffffffffff1673ffffffffffffffffffffffffffffffffffffffff16612045909392919063ffffffff16565b3373ffffffffffffffffffffffffffffffffffffffff167f9e71bc8eea02a63969f509818f2dafb9254532904319f9dbda79b67bd34a5f3d836040518082815260200191505060405180910390a2506001808190555050565b60085481565b600080600c541415611ad9576009549050611b4e565b611b4b611b3a600c54611b2c670de0b6b3a7640000611b1e600554611b10600854611b02611736565b611de090919063ffffffff16565b611e2a90919063ffffffff16565b611e2a90919063ffffffff16565b611eb090919063ffffffff16565b600954611efa90919063ffffffff16565b90505b90565b600260009054906101000a900473ffffffffffffffffffffffffffffffffffffffff1681565b60095481565b611bc5600d60003373ffffffffffffffffffffffffffffffffffffffff1673ffffffffffffffffffffffffffffffffffffffff1681526020019081526020016000205461074d565b611bcd610ee6565b565b60045481565b611bdd612024565b73ffffffffffffffffffffffffffffffffffffffff1660008054906101000a900473ffffffffffffffffffffffffffffffffffffffff1673ffffffffffffffffffffffffffffffffffffffff1614611c9d576040517f08c379a00000000000000000000000000000000000000000000000000000000081526004018080602001828103825260208152602001807f4f776e61626c653a2063616c6c6572206973206e6f7420746865206f776e657281525060200191505060405180910390fd5b600073ffffffffffffffffffffffffffffffffffffffff168173ffffffffffffffffffffffffffffffffffffffff161415611d23576040517f08c379a00000000000000000000000000000000000000000000000000000000081526004018080602001828103825260268152602001806125ad6026913960400191505060405180910390fd5b8073ffffffffffffffffffffffffffffffffffffffff1660008054906101000a900473ffffffffffffffffffffffffffffffffffffffff1673ffffffffffffffffffffffffffffffffffffffff167f8be0079c531659141344cd1fd0a4f28419497f9722a3daafe3b4186f6b6457e060405160405180910390a3806000806101000a81548173ffffffffffffffffffffffffffffffffffffffff021916908373ffffffffffffffffffffffffffffffffffffffff16021790555050565b6000611e2283836040518060400160405280601e81526020017f536166654d6174683a207375627472616374696f6e206f766572666c6f770000815250612106565b905092915050565b600080831415611e3d5760009050611eaa565b6000828402905082848281611e4e57fe5b0414611ea5576040517f08c379a00000000000000000000000000000000000000000000000000000000081526004018080602001828103825260218152602001806125d36021913960400191505060405180910390fd5b809150505b92915050565b6000611ef283836040518060400160405280601a81526020017f536166654d6174683a206469766973696f6e206279207a65726f0000000000008152506121c6565b905092915050565b600080828401905083811015611f78576040517f08c379a000000000000000000000000000000000000000000000000000000000815260040180806020018281038252601b8152602001807f536166654d6174683a206164646974696f6e206f766572666c6f77000000000081525060200191505060405180910390fd5b8091505092915050565b61201f8363a9059cbb60e01b8484604051602401808373ffffffffffffffffffffffffffffffffffffffff16815260200182815260200192505050604051602081830303815290604052907bffffffffffffffffffffffffffffffffffffffffffffffffffffffff19166020820180517bffffffffffffffffffffffffffffffffffffffffffffffffffffffff838183161783525050505061228c565b505050565b600033905090565b600081831061203b578161203d565b825b905092915050565b612100846323b872dd60e01b858585604051602401808473ffffffffffffffffffffffffffffffffffffffff1681526020018373ffffffffffffffffffffffffffffffffffffffff1681526020018281526020019350505050604051602081830303815290604052907bffffffffffffffffffffffffffffffffffffffffffffffffffffffff19166020820180517bffffffffffffffffffffffffffffffffffffffffffffffffffffffff838183161783525050505061228c565b50505050565b60008383111582906121b3576040517f08c379a00000000000000000000000000000000000000000000000000000000081526004018080602001828103825283818151815260200191508051906020019080838360005b8381101561217857808201518184015260208101905061215d565b50505050905090810190601f1680156121a55780820380516001836020036101000a031916815260200191505b509250505060405180910390fd5b5060008385039050809150509392505050565b60008083118290612272576040517f08c379a00000000000000000000000000000000000000000000000000000000081526004018080602001828103825283818151815260200191508051906020019080838360005b8381101561223757808201518184015260208101905061221c565b50505050905090810190601f1680156122645780820380516001836020036101000a031916815260200191505b509250505060405180910390fd5b50600083858161227e57fe5b049050809150509392505050565b60606122ee826040518060400160405280602081526020017f5361666545524332303a206c6f772d6c6576656c2063616c6c206661696c65648152508573ffffffffffffffffffffffffffffffffffffffff1661237b9092919063ffffffff16565b90506000815111156123765780806020019051602081101561230f57600080fd5b8101908080519060200190929190505050612375576040517f08c379a000000000000000000000000000000000000000000000000000000000815260040180806020018281038252602a8152602001806125f4602a913960400191505060405180910390fd5b5b505050565b606061238a8484600085612393565b90509392505050565b606061239e85612599565b612410576040517f08c379a000000000000000000000000000000000000000000000000000000000815260040180806020018281038252601d8152602001807f416464726573733a2063616c6c20746f206e6f6e2d636f6e747261637400000081525060200191505060405180910390fd5b600060608673ffffffffffffffffffffffffffffffffffffffff1685876040518082805190602001908083835b60208310612460578051825260208201915060208101905060208303925061243d565b6001836020036101000a03801982511681845116808217855250505050505090500191505060006040518083038185875af1925050503d80600081146124c2576040519150601f19603f3d011682016040523d82523d6000602084013e6124c7565b606091505b509150915081156124dc578092505050612591565b6000815111156124ef5780518082602001fd5b836040517f08c379a00000000000000000000000000000000000000000000000000000000081526004018080602001828103825283818151815260200191508051906020019080838360005b8381101561255657808201518184015260208101905061253b565b50505050905090810190601f1680156125835780820380516001836020036101000a031916815260200191505b509250505060405180910390fd5b949350505050565b600080823b90506000811191505091905056fe4f776e61626c653a206e6577206f776e657220697320746865207a65726f2061646472657373536166654d6174683a206d756c7469706c69636174696f6e206f766572666c6f775361666545524332303a204552433230206f7065726174696f6e20646964206e6f742073756363656564a264697066735822122046ac74e2651c837e8c0cce10ff46b18fc59a51fe78d5d55cdbc2054d65d7ee0b64736f6c634300060c0033

Deployed ByteCode Sourcemap

24593:5478:0:-:0;;;;;;;;;;;;;;;;;;;;;;;;;;;;;;;;;;;;;;;;;;;;;;;;;;;;;;;;;;;;;;;;;;;;;;;;;;;;;;;;;;;;;;;;;;;;;;;;;;;;;;;;;;;;;;;;;;;;;;;;;;;;;;;;;;;;;;;;;;;;;;;;;;;;;;;;;;;;;;;;;;;;;;;;;;;;;;;;;;;;;;;26759:265;;;;;;;;;;;;;;;;;;;;;;;;;;;;;;;;;;;:::i;:::-;;;;;;;;;;;;;;;;;;;25137:42;;;;;;;;;;;;;;;;;;;;;;;;;;;;;;;;;;;:::i;:::-;;;;;;;;;;;;;;;;;;;25973:93;;;:::i;:::-;;;;;;;;;;;;;;;;;;;27032:121;;;:::i;:::-;;;;;;;;;;;;;;;;;;;27622:389;;;;;;;;;;;;;;;;;;;;;;;;;;;;;;;;;:::i;:::-;;24945:41;;;:::i;:::-;;;;;;;;;;;;;;;;;;;28495:814;;;;;;;;;;;;;;;;;;;;;;;;;;;;;;;;;:::i;:::-;;28021:307;;;:::i;:::-;;25277:647;;;;;;;;;;;;;;;;;;;;;;;;;;;;;;;;;;;;;;;;;;;;;;:::i;:::-;;26074:112;;;;;;;;;;;;;;;;;;;;;;;;;;;;;;;;;;;:::i;:::-;;;;;;;;;;;;;;;;;;;2733:148;;;:::i;:::-;;24797:26;;;:::i;:::-;;;;;;;;;;;;;;;;;;;;;24904:34;;;:::i;:::-;;;;;;;;;;;;;;;;;;;24868:29;;;:::i;:::-;;;;;;;;;;;;;;;;;;;26194:131;;;:::i;:::-;;;;;;;;;;;;;;;;;;;25073:57;;;;;;;;;;;;;;;;;;;;;;;;;;;;;;;;;;;:::i;:::-;;;;;;;;;;;;;;;;;;;2093:79;;;:::i;:::-;;;;;;;;;;;;;;;;;;;;;27213:401;;;;;;;;;;;;;;;;;;;;;;;;;;;;;;;;;:::i;:::-;;24993:29;;;:::i;:::-;;;;;;;;;;;;;;;;;;;26333:418;;;:::i;:::-;;;;;;;;;;;;;;;;;;;24764:26;;;:::i;:::-;;;;;;;;;;;;;;;;;;;;;25029:35;;;:::i;:::-;;;;;;;;;;;;;;;;;;;28336:97;;;:::i;:::-;;24830:31;;;:::i;:::-;;;;;;;;;;;;;;;;;;;3036:244;;;;;;;;;;;;;;;;;;;;;;;;;;;;;;;;;;;:::i;:::-;;26759:265;26813:7;26853:163;26999:7;:16;27007:7;26999:16;;;;;;;;;;;;;;;;26853:123;26971:4;26853:95;26894:53;26915:22;:31;26938:7;26915:31;;;;;;;;;;;;;;;;26894:16;:14;:16::i;:::-;:20;;:53;;;;:::i;:::-;26853:9;:18;26863:7;26853:18;;;;;;;;;;;;;;;;:40;;:95;;;;:::i;:::-;:117;;:123;;;;:::i;:::-;:145;;:163;;;;:::i;:::-;26833:183;;26759:265;;;:::o;25137:42::-;;;;;;;;;;;;;;;;;:::o;25973:93::-;26019:7;26046:12;;26039:19;;25973:93;:::o;27032:121::-;27087:7;27114:31;27129:15;;27114:10;;:14;;:31;;;;:::i;:::-;27107:38;;27032:121;:::o;27622:389::-;23592:1;24190:7;;:19;;24182:63;;;;;;;;;;;;;;;;;;;;;;;;;;;;;;;;;;;;;;;;;23592:1;24323:7;:18;;;;27716:10:::1;29549:16;:14;:16::i;:::-;29526:20;:39;;;;29593:26;:24;:26::i;:::-;29576:14;:43;;;;29653:1;29634:21;;:7;:21;;;29630:157;;29691:15;29698:7;29691:6;:15::i;:::-;29672:7;:16;29680:7;29672:16;;;;;;;;;;;;;;;:34;;;;29755:20;;29721:22;:31;29744:7;29721:31;;;;;;;;;;;;;;;:54;;;;29630:157;27761:1:::2;27752:6;:10;27744:40;;;;;;;;;;;;;;;;;;;;;;;;;;;::::0;::::2;;;;;;;;;;;;;27810:24;27827:6;27810:12;;:16;;:24;;;;:::i;:::-;27795:12;:39;;;;27869:33;27895:6;27869:9;:21;27879:10;27869:21;;;;;;;;;;;;;;;;:25;;:33;;;;:::i;:::-;27845:9;:21;27855:10;27845:21;;;;;;;;;;;;;;;:57;;;;27913:45;27939:10;27951:6;27913:12;;;;;;;;;;;:25;;;;:45;;;;;:::i;:::-;27984:10;27974:29;;;27996:6;27974:29;;;;;;;;;;;;;;;;;;24354:1:::1;23548::::0;24502:7;:22;;;;27622:389;:::o;24945:41::-;;;;:::o;28495:814::-;2315:12;:10;:12::i;:::-;2305:22;;:6;;;;;;;;;;:22;;;2297:67;;;;;;;;;;;;;;;;;;;;;;;;;;;;;;;;;;;;;;;;;29423:9:::1;;29404:15;:28;;29396:52;;;;;;;;;;;;;;;;;;;;;;;;;;;::::0;::::1;;;;;;;;;;;;;28627:1:::2;29549:16;:14;:16::i;:::-;29526:20;:39;;;;29593:26;:24;:26::i;:::-;29576:14;:43;;;;29653:1;29634:21;;:7;:21;;;29630:157;;29691:15;29698:7;29691:6;:15::i;:::-;29672:7;:16;29680:7;29672:16;;;;;;;;;;;;;;;:34;;;;29755:20;;29721:22;:31;29744:7;29721:31;;;;;;;;;;;;;;;:54;;;;29630:157;28670:12:::3;;28651:15;:31;28647:318;;28712:27;28723:15;;28712:6;:10;;:27;;;;:::i;:::-;28699:10;:40;;;;28647:318;;;28772:17;28792:33;28809:15;28792:12;;:16;;:33;;;;:::i;:::-;28772:53;;28840:16;28859:25;28873:10;;28859:9;:13;;:25;;;;:::i;:::-;28840:44;;28912:41;28937:15;;28912:20;28923:8;28912:6;:10;;:20;;;;:::i;:::-;:24;;:41;;;;:::i;:::-;28899:10;:54;;;;28647:318;;;28977:15;28995:12;;;;;;;;;;;:22;;;29026:4;28995:37;;;;;;;;;;;;;;;;;;;;;;;;;;;;;;;;;;;;;;::::0;::::3;;;;;;;;;;;;::::0;::::3;;;;;;;;;;;;;;;;;;;::::0;::::3;;;;;;;;;;;;;;;;;;28977:55;;29079:28;29091:15;;29079:7;:11;;:28;;;;:::i;:::-;29065:10;;:42;;29043:116;;;;;;;;;;;;;;;;;;;;;;;;;;;::::0;::::3;;;;;;;;;;;;;29189:15;29172:14;:32;;;;29230:36;29250:15;;29230;:19;;:36;;;;:::i;:::-;29215:12;:51;;;;29282:19;29294:6;29282:19;;;;;;;;;;;;;;;;;;29797:1;29459::::2;28495:814:::0;:::o;28021:307::-;23592:1;24190:7;;:19;;24182:63;;;;;;;;;;;;;;;;;;;;;;;;;;;;;;;;;;;;;;;;;23592:1;24323:7;:18;;;;28075:10:::1;29549:16;:14;:16::i;:::-;29526:20;:39;;;;29593:26;:24;:26::i;:::-;29576:14;:43;;;;29653:1;29634:21;;:7;:21;;;29630:157;;29691:15;29698:7;29691:6;:15::i;:::-;29672:7;:16;29680:7;29672:16;;;;;;;;;;;;;;;:34;;;;29755:20;;29721:22;:31;29744:7;29721:31;;;;;;;;;;;;;;;:54;;;;29630:157;28098:14:::2;28115:7;:19;28123:10;28115:19;;;;;;;;;;;;;;;;28098:36;;28158:1;28149:6;:10;28145:176;;;28198:1;28176:7;:19;28184:10;28176:19;;;;;;;;;;;;;;;:23;;;;28214:45;28240:10;28252:6;28214:12;;;;;;;;;;;:25;;;;:45;;;;;:::i;:::-;28290:10;28279:30;;;28302:6;28279:30;;;;;;;;;;;;;;;;;;28145:176;29797:1;24354::::1;23548::::0;24502:7;:22;;;;28021:307::o;25277:647::-;2315:12;:10;:12::i;:::-;2305:22;;:6;;;;;;;;;;:22;;;2297:67;;;;;;;;;;;;;;;;;;;;;;;;;;;;;;;;;;;;;;;;;25461:3:::1;25430:35;;:19;:35;;;;25408:112;;;;;;;;;;;;;;;;;;;;;;;;;;;::::0;::::1;;;;;;;;;;;;;25584:3;25553:35;;:19;:35;;;;25531:112;;;;;;;;;;;;;;;;;;;;;;;;;;;::::0;::::1;;;;;;;;;;;;;25709:3;25676:37;;25684:12;;;;;;;;;;;25676:37;;;:95;;;;25767:3;25734:37;;25742:12;;;;;;;;;;;25734:37;;;25676:95;25654:156;;;;;;;;;;;;;;;;;;;;;;;;;;;::::0;::::1;;;;;;;;;;;;;25843:19;25821:12;;:42;;;;;;;;;;;;;;;;;;25896:19;25874:12;;:42;;;;;;;;;;;;;;;;;;25277:647:::0;;:::o;26074:112::-;26133:7;26160:9;:18;26170:7;26160:18;;;;;;;;;;;;;;;;26153:25;;26074:112;;;:::o;2733:148::-;2315:12;:10;:12::i;:::-;2305:22;;:6;;;;;;;;;;:22;;;2297:67;;;;;;;;;;;;;;;;;;;;;;;;;;;;;;;;;;;;;;;;;2840:1:::1;2803:40;;2824:6;::::0;::::1;;;;;;;;2803:40;;;;;;;;;;;;2871:1;2854:6:::0;::::1;:19;;;;;;;;;;;;;;;;;;2733:148::o:0;24797:26::-;;;;;;;;;;;;;:::o;24904:34::-;;;;:::o;24868:29::-;;;;:::o;26194:131::-;26251:7;26278:39;26287:15;26304:12;;26278:8;:39::i;:::-;26271:46;;26194:131;:::o;25073:57::-;;;;;;;;;;;;;;;;;:::o;2093:79::-;2131:7;2158:6;;;;;;;;;;;2151:13;;2093:79;:::o;27213:401::-;23592:1;24190:7;;:19;;24182:63;;;;;;;;;;;;;;;;;;;;;;;;;;;;;;;;;;;;;;;;;23592:1;24323:7;:18;;;;27306:10:::1;29549:16;:14;:16::i;:::-;29526:20;:39;;;;29593:26;:24;:26::i;:::-;29576:14;:43;;;;29653:1;29634:21;;:7;:21;;;29630:157;;29691:15;29698:7;29691:6;:15::i;:::-;29672:7;:16;29680:7;29672:16;;;;;;;;;;;;;;;:34;;;;29755:20;;29721:22;:31;29744:7;29721:31;;;;;;;;;;;;;;;:54;;;;29630:157;27351:1:::2;27342:6;:10;27334:37;;;;;;;;;;;;;;;;;;;;;;;;;;;::::0;::::2;;;;;;;;;;;;;27397:24;27414:6;27397:12;;:16;;:24;;;;:::i;:::-;27382:12;:39;;;;27456:33;27482:6;27456:9;:21;27466:10;27456:21;;;;;;;;;;;;;;;;:25;;:33;;;;:::i;:::-;27432:9;:21;27442:10;27432:21;;;;;;;;;;;;;;;:57;;;;27500:64;27530:10;27550:4;27557:6;27500:12;;;;;;;;;;;:29;;;;:64;;;;;;:::i;:::-;27587:10;27580:26;;;27599:6;27580:26;;;;;;;;;;;;;;;;;;24354:1:::1;23548::::0;24502:7;:22;;;;27213:401;:::o;24993:29::-;;;;:::o;26333:418::-;26380:7;26420:1;26404:12;;:17;26400:77;;;26445:20;;26438:27;;;;26400:77;26507:236;26550:178;26715:12;;26550:138;26683:4;26550:106;26645:10;;26550:68;26603:14;;26550:26;:24;:26::i;:::-;:52;;:68;;;;:::i;:::-;:94;;:106;;;;:::i;:::-;:132;;:138;;;;:::i;:::-;:164;;:178;;;;:::i;:::-;26507:20;;:24;;:236;;;;:::i;:::-;26487:256;;26333:418;;:::o;24764:26::-;;;;;;;;;;;;;:::o;25029:35::-;;;;:::o;28336:97::-;28372:31;28381:9;:21;28391:10;28381:21;;;;;;;;;;;;;;;;28372:8;:31::i;:::-;28414:11;:9;:11::i;:::-;28336:97::o;24830:31::-;;;;:::o;3036:244::-;2315:12;:10;:12::i;:::-;2305:22;;:6;;;;;;;;;;:22;;;2297:67;;;;;;;;;;;;;;;;;;;;;;;;;;;;;;;;;;;;;;;;;3145:1:::1;3125:22;;:8;:22;;;;3117:73;;;;;;;;;;;;;;;;;;;;;;;;;;;;;;;;;;;;;;;;;3235:8;3206:38;;3227:6;::::0;::::1;;;;;;;;3206:38;;;;;;;;;;;;3264:8;3255:6;::::0;:17:::1;;;;;;;;;;;;;;;;;;3036:244:::0;:::o;5477:136::-;5535:7;5562:43;5566:1;5569;5562:43;;;;;;;;;;;;;;;;;:3;:43::i;:::-;5555:50;;5477:136;;;;:::o;6363:471::-;6421:7;6671:1;6666;:6;6662:47;;;6696:1;6689:8;;;;6662:47;6721:9;6737:1;6733;:5;6721:17;;6766:1;6761;6757;:5;;;;;;:10;6749:56;;;;;;;;;;;;;;;;;;;;;;;;;;;;;;;;;;;;;;;;;6825:1;6818:8;;;6363:471;;;;;:::o;7306:132::-;7364:7;7391:39;7395:1;7398;7391:39;;;;;;;;;;;;;;;;;:3;:39::i;:::-;7384:46;;7306:132;;;;:::o;5015:181::-;5073:7;5093:9;5109:1;5105;:5;5093:17;;5134:1;5129;:6;;5121:46;;;;;;;;;;;;;;;;;;;;;;;;;;;;;;;;;;;;;;;;;5187:1;5180:8;;;5015:181;;;;:::o;18819:177::-;18902:86;18922:5;18952:23;;;18977:2;18981:5;18929:58;;;;;;;;;;;;;;;;;;;;;;;;;;;;;;;;;;;;;;;;;;;;;;;;;;;;;;18902:19;:86::i;:::-;18819:177;;;:::o;670:106::-;723:15;758:10;751:17;;670:106;:::o;3692:::-;3750:7;3781:1;3777;:5;:13;;3789:1;3777:13;;;3785:1;3777:13;3770:20;;3692:106;;;;:::o;19004:205::-;19105:96;19125:5;19155:27;;;19184:4;19190:2;19194:5;19132:68;;;;;;;;;;;;;;;;;;;;;;;;;;;;;;;;;;;;;;;;;;;;;;;;;;;;;;;;;;;;;;19105:19;:96::i;:::-;19004:205;;;;:::o;5914:192::-;6000:7;6033:1;6028;:6;;6036:12;6020:29;;;;;;;;;;;;;;;;;;;;;;;;;;;;;;;;;;;;;;;;;;;;;;;;;;;;;;;;;;;;;;;;;;;;;;;;;;;;;;;;;;;;;;;;;;;;;;;;;;;;;;;;;;;;;;;;;6060:9;6076:1;6072;:5;6060:17;;6097:1;6090:8;;;5914:192;;;;;:::o;7930:278::-;8016:7;8048:1;8044;:5;8051:12;8036:28;;;;;;;;;;;;;;;;;;;;;;;;;;;;;;;;;;;;;;;;;;;;;;;;;;;;;;;;;;;;;;;;;;;;;;;;;;;;;;;;;;;;;;;;;;;;;;;;;;;;;;;;;;;;;;;;;8075:9;8091:1;8087;:5;;;;;;8075:17;;8199:1;8192:8;;;7930:278;;;;;:::o;21124:761::-;21548:23;21574:69;21602:4;21574:69;;;;;;;;;;;;;;;;;21582:5;21574:27;;;;:69;;;;;:::i;:::-;21548:95;;21678:1;21658:10;:17;:21;21654:224;;;21800:10;21789:30;;;;;;;;;;;;;;;;;;;;;;;;;;;;;;;21781:85;;;;;;;;;;;;;;;;;;;;;;;;;;;;;;;;;;;;;;;;;21654:224;21124:761;;;:::o;15835:196::-;15938:12;15970:53;15993:6;16001:4;16007:1;16010:12;15970:22;:53::i;:::-;15963:60;;15835:196;;;;;:::o;17202:979::-;17332:12;17365:18;17376:6;17365:10;:18::i;:::-;17357:60;;;;;;;;;;;;;;;;;;;;;;;;;;;;;;;;;;;;;;;;;17491:12;17505:23;17532:6;:11;;17552:8;17563:4;17532:36;;;;;;;;;;;;;;;;;;;;;;;;;;;;;;;;;;;;;;;;;;;;;;;;;;;;;;;;;;;;;;;;;;;;;;;;;;;;;;;;;;;;;;;;;;;;;;;;;;;;;;;;;;;;;;;;;;;;;;;;;;;;;;;17490:78;;;;17583:7;17579:595;;;17614:10;17607:17;;;;;;17579:595;17748:1;17728:10;:17;:21;17724:439;;;17991:10;17985:17;18052:15;18039:10;18035:2;18031:19;18024:44;17939:148;18134:12;18127:20;;;;;;;;;;;;;;;;;;;;;;;;;;;;;;;;;;;;;;;;;;;;;;;;;;;;;;;;;;;;;;;;;;;;;;;;;;;;;;;;;;;;;;;;;;;;;;;;;;;;;;;;;;;;17202:979;;;;;;;:::o;12943:422::-;13003:4;13211:12;13322:7;13310:20;13302:28;;13356:1;13349:4;:8;13342:15;;;12943:422;;;:::o

Swarm Source

ipfs://46ac74e2651c837e8c0cce10ff46b18fc59a51fe78d5d55cdbc2054d65d7ee0b
Block Transaction Gas Used Reward
Age Block Fee Address BC Fee Address Voting Power Jailed Incoming
Block Uncle Number Difficulty Gas Used Reward
Loading
Loading
Make sure to use the "Vote Down" button for any spammy posts, and the "Vote Up" for interesting conversations.